GW1811 Weather Reports


time (UTC)temp
F
wind
direction
speed
knots
gust
knots
rain 1hr
in
rain 24hr
in
rain mn
in
humidity
%
barometer
mb
20260504221024 65 46 10.4 22.6 0.00 0.00 0.00 40 1008.4
20260504220523 65 9 13.0 22.6 0.00 0.00 0.00 39 1008.4
20260504220045 65 11 8.7 19.1 0.00 0.00 0.00 40 1008.3
20260504215527 65 55 10.4 19.1 0.00 0.00 0.00 39 1008.5
20260504215024 66 65 13.0 19.1 0.00 0.00 0.00 38 1008.4
20260504214541 66 28 10.4 16.5 0.00 0.00 0.00 38 1008.3
20260504214024 66 44 8.7 20.9 0.00 0.00 0.00 38 1008.3
20260504213524 65 22 12.2 20.9 0.00 0.00 0.00 38 1008.3
20260504213043 66 28 13.0 20.9 0.00 0.00 0.00 38 1008.3
20260504212525 66 27 12.2 18.2 0.00 0.00 0.00 38 1008.3
20260504212024 65 350 10.4 20.0 0.00 0.00 0.00 39 1008.3
20260504211538 64 20 10.4 20.9 0.00 0.00 0.00 39 1008.3
20260504211024 65 44 13.0 20.9 0.00 0.00 0.00 39 1008.3
20260504210525 65 32 13.0 20.0 0.00 0.00 0.00 39 1008.3
20260504210049 65 22 9.6 18.2 0.00 0.00 0.00 39 1008.2
20260504205524 65 22 11.3 16.5 0.00 0.00 0.00 39 1008.3
20260504205029 65 43 10.4 16.5 0.00 0.00 0.00 38 1008.5
20260504204542 66 12 10.4 16.5 0.00 0.00 0.00 38 1008.3
20260504204024 66 32 9.6 17.4 0.00 0.00 0.00 37 1008.6
20260504203524 66 27 10.4 17.4 0.00 0.00 0.00 38 1008.4
20260504203041 66 19 12.2 16.5 0.00 0.00 0.00 38 1008.3
20260504202524 66 11 11.3 18.2 0.00 0.00 0.00 38 1008.3
20260504202024 66 32 11.3 18.2 0.00 0.00 0.00 37 1008.1
20260504201543 66 44 10.4 18.2 0.00 0.00 0.00 38 1008.2
20260504201023 66 360 7.0 16.5 0.00 0.00 0.00 37 1008.3
20260504200524 67 31 8.7 16.5 0.00 0.00 0.00 37 1008.7
20260504200036 66 9 11.3 18.2 0.00 0.00 0.00 37 1008.6
20260504195522 66 28 10.4 18.2 0.00 0.00 0.00 37 1008.6
20260504195025 66 17 11.3 18.2 0.00 0.00 0.00 37 1008.4
20260504194552 66 21 12.2 19.1 0.00 0.00 0.00 37 1008.3
20260504194025 66 23 10.4 19.1 0.00 0.00 0.00 37 1008.5
20260504193525 67 5 12.2 19.1 0.00 0.00 0.00 36 1008.3
20260504193048 67 352 11.3 19.1 0.00 0.00 0.00 37 1008.3
20260504192524 66 15 11.3 19.1 0.00 0.00 0.00 37 1008.4
20260504192028 66 9 11.3 20.0 0.00 0.00 0.00 37 1008.3
20260504191607 66 44 12.2 20.0 0.00 0.00 0.00 37 1008.3
20260504191024 67 38 13.0 20.9 0.00 0.00 0.00 38 1008.2
20260504190524 66 32 13.9 20.9 0.00 0.00 0.00 38 1008.2
20260504190042 66 38 13.0 23.5 0.00 0.00 0.00 38 1008.3
20260504185523 67 15 15.6 23.5 0.00 0.00 0.00 37 1008.2
20260504185024 67 9 13.9 23.5 0.00 0.00 0.00 37 1008.2
20260504184550 68 9 13.0 19.1 0.00 0.00 0.00 37 1008.2
20260504184024 67 13 10.4 19.1 0.00 0.00 0.00 38 1008.3
20260504183525 66 22 13.9 20.0 0.00 0.00 0.00 38 1008.2
20260504183038 67 352 10.4 20.0 0.00 0.00 0.00 38 1008.2
20260504182527 66 35 13.0 20.0 0.00 0.00 0.00 38 1008.2
20260504182024 66 35 12.2 19.1 0.00 0.00 0.00 38 1008.0
20260504181541 66 30 12.2 20.0 0.00 0.00 0.00 38 1008.1
20260504181026 66 63 11.3 20.0 0.00 0.00 0.00 38 1007.9
20260504180524 67 28 13.0 22.6 0.00 0.00 0.00 37 1007.9
20260504180041 67 22 13.0 22.6 0.00 0.00 0.00 39 1007.9
20260504175523 67 30 14.8 20.0 0.00 0.00 0.00 39 1007.9
20260504175024 66 17 12.2 19.1 0.00 0.00 0.00 40 1007.8
20260504174541 66 5 13.9 19.1 0.00 0.00 0.00 40 1007.9
20260504174024 67 24 12.2 22.6 0.00 0.00 0.00 40 1007.9
20260504173523 67 36 14.8 22.6 0.00 0.00 0.00 40 1007.9
20260504173039 68 44 11.3 20.0 0.00 0.00 0.00 40 1007.7
20260504172523 68 15 14.8 20.9 0.00 0.00 0.00 40 1007.7
20260504172024 68 29 12.2 20.9 0.00 0.00 0.00 40 1007.5
20260504171540 69 17 14.8 21.7 0.00 0.00 0.00 39 1007.6
20260504171028 68 9 13.9 21.7 0.00 0.00 0.00 39 1007.5
20260504170527 68 43 13.0 21.7 0.00 0.00 0.00 39 1007.3
20260504151022 68 260 4.3 7.8 0.00 0.00 0.00 37 1007.2
20260504150526 67 285 5.2 8.7 0.00 0.00 0.00 37 1007.2
20260504141027 60 302 4.3 7.8 0.00 0.00 0.00 47 1007.5
20260504140524 60 281 4.3 8.7 0.00 0.00 0.00 48 1007.4
20260504130523 49 252 2.6 5.2 0.00 0.00 0.00 64 1007.5
20260504110527 40 0 0.0 0.9 0.00 0.00 0.00 70 1007.1
20260504100525 39 0 1.7 7.0 0.00 0.00 0.00 70 1007.6
20260504081545 41 233 2.6 4.3 0.00 0.00 0.00 68 1008.0
20260504081028 41 233 1.7 4.3 0.00 0.00 0.00 68 1008.1
20260504080525 41 235 2.6 5.2 0.00 0.00 0.00 67 1008.1
20260504050525 46 235 1.7 4.3 0.00 0.00 0.00 65 1009.9
20260504045527 47 171 3.5 5.2 0.00 0.00 0.00 62 1010.0
20260504045026 47 171 3.5 4.3 0.00 0.00 0.00 62 1010.0
20260504044538 48 171 2.6 5.2 0.00 0.00 0.00 62 1010.1
20260504044025 48 171 3.5 5.2 0.00 0.00 0.00 61 1010.0
20260504043531 48 153 3.5 5.2 0.00 0.00 0.00 62 1010.0
20260504043045 48 151 3.5 5.2 0.00 0.00 0.00 61 1010.1
20260504042525 49 155 2.6 6.1 0.00 0.00 0.00 59 1010.1
20260504042025 49 155 2.6 6.1 0.00 0.00 0.00 58 1010.2
20260504041543 50 148 0.9 6.1 0.00 0.00 0.00 57 1010.2
20260504041024 51 0 0.0 0.0 0.00 0.00 0.00 56 1010.3
20260504040528 52 0 0.0 0.0 0.00 0.00 0.00 55 1010.3
20260504040043 52 0 0.0 0.0 0.00 0.00 0.00 55 1010.3
20260504035528 53 0 0.0 0.0 0.00 0.00 0.00 54 1010.4
20260504035026 54 0 0.0 2.6 0.00 0.00 0.00 53 1010.4
20260504034552 55 0 0.0 5.2 0.00 0.00 0.00 52 1010.3
20260504034026 55 103 2.6 5.2 0.00 0.00 0.00 52 1010.2
20260504033526 56 106 3.5 5.2 0.00 0.00 0.00 51 1010.2
20260504033050 56 96 1.7 6.1 0.00 0.00 0.00 51 1010.4
20260504032525 57 88 2.6 6.1 0.00 0.00 0.00 51 1010.5
20260504032025 57 68 2.6 4.3 0.00 0.00 0.00 51 1010.6
20260504031549 57 55 0.0 4.3 0.00 0.00 0.00 50 1010.6
20260504031024 57 54 1.7 4.3 0.00 0.00 0.00 50 1010.7
20260504030526 58 58 1.7 3.5 0.00 0.00 0.00 49 1010.5
20260504030038 58 31 0.9 3.5 0.00 0.00 0.00 49 1010.4
20260504025524 58 53 1.7 3.5 0.00 0.00 0.00 49 1010.4
20260504025025 59 67 1.7 7.0 0.00 0.00 0.00 49 1010.4
20260504024543 59 49 2.6 7.8 0.00 0.00 0.00 48 1010.4
20260504024024 59 36 3.5 7.8 0.00 0.00 0.00 48 1010.4
20260504023524 59 60 3.5 13.9 0.00 0.00 0.00 48 1010.4
20260504023043 60 53 6.1 13.9 0.00 0.00 0.00 48 1010.4
20260504022528 59 5 8.7 13.9 0.00 0.00 0.00 47 1010.4
20260504022024 59 13 8.7 14.8 0.00 0.00 0.00 48 1010.4
20260504021543 60 360 8.7 14.8 0.00 0.00 0.00 48 1010.3
20260504021026 60 36 10.4 16.5 0.00 0.00 0.00 47 1010.3
20260504020525 61 12 12.2 16.5 0.00 0.00 0.00 46 1010.4
20260504020039 61 20 11.3 20.0 0.00 0.00 0.00 46 1010.7
20260504015525 61 348 12.2 20.0 0.00 0.00 0.00 45 1011.0
20260504015028 62 336 14.8 20.0 0.00 0.00 0.00 45 1010.9
20260504014540 63 346 14.8 19.1 0.00 0.00 0.00 43 1010.4
20260504014028 66 348 13.9 18.2 0.00 0.00 0.00 40 1010.1
20260504013524 68 9 3.5 10.4 0.00 0.00 0.00 33 1009.8
20260504013045 68 360 6.1 10.4 0.00 0.00 0.00 32 1009.7
20260504012526 68 360 4.3 13.0 0.00 0.00 0.00 32 1009.7
20260504012025 68 329 5.2 13.0 0.00 0.00 0.00 32 1009.7
20260504011545 69 31 7.0 11.3 0.00 0.00 0.00 32 1009.6
20260504011030 69 298 2.6 7.8 0.00 0.00 0.00 32 1009.7
20260504010523 68 296 3.5 7.8 0.00 0.00 0.00 32 1009.7
20260504010044 69 315 0.9 2.6 0.00 0.00 0.00 32 1009.7
20260504005525 69 338 0.9 6.1 0.00 0.00 0.00 32 1009.6
20260504005024 69 0 0.9 6.1 0.00 0.00 0.00 32 1009.6
20260504004542 69 296 0.9 7.0 0.00 0.00 0.00 31 1009.5
20260504004023 70 340 2.6 7.0 0.00 0.00 0.00 31 1009.5
20260504003525 70 321 2.6 7.0 0.00 0.00 0.00 31 1009.5
20260504003043 71 277 2.6 7.8 0.00 0.00 0.00 30 1009.5
20260504002529 71 252 4.3 7.8 0.00 0.00 0.00 30 1009.5
20260504002025 71 209 4.3 7.0 0.00 0.00 0.00 30 1009.7
20260504001539 70 221 3.5 7.8 0.00 0.00 0.00 30 1009.5
20260504001028 71 147 2.6 7.8 0.00 0.00 0.00 30 1009.6
20260504000524 71 197 3.5 9.6 0.00 0.00 0.00 30 1009.6
20260504000051 72 227 2.6 10.4 0.00 0.00 0.00 29 1009.7
20260503235525 73 190 7.0 10.4 0.00 0.00 0.00 29 1009.6
20260503235024 73 153 6.1 10.4 0.00 0.00 0.00 29 1009.7
20260503234544 73 154 4.3 7.8 0.00 0.00 0.00 29 1009.8
20260503234025 73 157 3.5 7.8 0.00 0.00 0.00 29 1009.9
20260503233528 72 159 2.6 7.8 0.00 0.00 0.00 29 1010.0
20260503233043 72 136 3.5 7.8 0.00 0.00 0.00 29 1010.0
20260503232528 72 144 1.7 11.3 0.00 0.00 0.00 29 1010.0
20260503232025 72 124 4.3 12.2 0.00 0.00 0.00 29 1010.1
20260503231539 73 198 7.8 12.2 0.00 0.00 0.00 29 1010.0
20260503231029 73 159 5.2 10.4 0.00 0.00 0.00 30 1010.0
20260503230525 72 128 7.0 10.4 0.00 0.00 0.00 30 1010.0
20260503230040 72 153 5.2 9.6 0.00 0.00 0.00 29 1010.2
20260503225524 73 152 5.2 12.2 0.00 0.00 0.00 29 1010.2
20260503225027 73 161 6.1 14.8 0.00 0.00 0.00 29 1010.2
20260503224538 73 183 5.2 14.8 0.00 0.00 0.00 29 1010.4
20260503224025 73 168 6.1 15.6 0.00 0.00 0.00 29 1010.3
20260503223525 73 181 8.7 15.6 0.00 0.00 0.00 30 1010.3
20260503223045 73 122 3.5 13.9 0.00 0.00 0.00 30 1010.5
20260503222526 74 136 5.2 13.9 0.00 0.00 0.00 29 1010.5
20260503222024 75 146 9.6 13.0 0.00 0.00 0.00 29 1010.5
20260503221541 74 132 6.1 13.0 0.00 0.00 0.00 29 1010.7